| time (UTC) | temp F | wind direction | speed MPH | gust MPH | rain 1hr in | rain 24hr in | rain mn in | humidity % | barometer mb |
| 20260504042711 | 67 | 94 | 6.0 | 0.0 | 0.00 | 0.00 | 0.00 | 66 | 1019.6 |
| 20260504042213 | 67 | 111 | 9.0 | 0.0 | 0.00 | 0.00 | 0.00 | 65 | 1019.6 |
| 20260504041713 | 68 | 199 | 4.0 | 0.0 | 0.00 | 0.00 | 0.00 | 65 | 1019.6 |
| 20260504041212 | 68 | 160 | 4.0 | 0.0 | 0.00 | 0.00 | 0.00 | 65 | 1019.6 |
| 20260504040710 | 68 | 147 | 6.0 | 0.0 | 0.00 | 0.00 | 0.00 | 63 | 1019.6 |
| 20260504040211 | 68 | 337 | 6.0 | 0.0 | 0.00 | 0.00 | 0.00 | 64 | 1019.6 |
| 20260504035712 | 68 | 119 | 6.0 | 0.0 | 0.00 | 0.00 | 0.00 | 64 | 1019.6 |
| 20260504035213 | 67 | 163 | 3.0 | 0.0 | 0.00 | 0.00 | 0.00 | 65 | 1019.6 |
| 20260504034714 | 67 | 125 | 3.0 | 0.0 | 0.00 | 0.00 | 0.00 | 64 | 1019.6 |
| 20260504034212 | 67 | 169 | 7.0 | 0.0 | 0.00 | 0.00 | 0.00 | 65 | 1019.6 |
| 20260504033715 | 67 | 189 | 5.0 | 0.0 | 0.00 | 0.00 | 0.00 | 64 | 1019.6 |
| 20260504033214 | 66 | 128 | 5.0 | 0.0 | 0.00 | 0.00 | 0.00 | 66 | 1019.6 |
| 20260504032711 | 65 | 162 | 3.0 | 0.0 | 0.00 | 0.00 | 0.00 | 67 | 1019.6 |
| 20260504032210 | 64 | 129 | 4.0 | 0.0 | 0.00 | 0.00 | 0.00 | 68 | 1019.6 |
| 20260504031713 | 63 | 187 | 3.0 | 0.0 | 0.00 | 0.00 | 0.00 | 68 | 1019.3 |
| 20260504031211 | 63 | 133 | 3.0 | 0.0 | 0.00 | 0.00 | 0.00 | 68 | 1019.3 |
| 20260504030714 | 63 | 164 | 3.0 | 0.0 | 0.00 | 0.00 | 0.00 | 68 | 1019.6 |
| 20260504030212 | 63 | 200 | 3.0 | 0.0 | 0.00 | 0.00 | 0.00 | 67 | 1019.6 |
| 20260504025711 | 63 | 129 | 2.0 | 0.0 | 0.00 | 0.00 | 0.00 | 67 | 1019.3 |
| 20260504025211 | 64 | 157 | 2.0 | 0.0 | 0.00 | 0.00 | 0.00 | 66 | 1019.3 |
| 20260504024710 | 64 | 190 | 2.0 | 0.0 | 0.00 | 0.00 | 0.00 | 65 | 1019.3 |
| 20260504024213 | 63 | 126 | 2.0 | 0.0 | 0.00 | 0.00 | 0.00 | 66 | 1019.3 |
| 20260504023710 | 64 | 123 | 3.0 | 0.0 | 0.00 | 0.00 | 0.00 | 67 | 1019.3 |
| 20260504023214 | 64 | 190 | 2.0 | 0.0 | 0.00 | 0.00 | 0.00 | 66 | 1019.3 |
| 20260504022714 | 64 | 139 | 3.0 | 0.0 | 0.00 | 0.00 | 0.00 | 66 | 1019.3 |
| 20260504022214 | 64 | 202 | 2.0 | 0.0 | 0.00 | 0.00 | 0.00 | 67 | 1019.3 |
| 20260504021712 | 64 | 149 | 2.0 | 0.0 | 0.00 | 0.00 | 0.00 | 67 | 1019.6 |
| 20260504021212 | 64 | 166 | 2.0 | 0.0 | 0.00 | 0.00 | 0.00 | 64 | 1019.3 |
| 20260504020712 | 65 | 159 | 3.0 | 0.0 | 0.00 | 0.00 | 0.00 | 64 | 1019.3 |
| 20260504020213 | 65 | 188 | 2.0 | 0.0 | 0.00 | 0.00 | 0.00 | 62 | 1019.3 |
| 20260504015727 | 66 | 187 | 3.0 | 0.0 | 0.00 | 0.00 | 0.00 | 63 | 1019.3 |
| 20260504015217 | 66 | 189 | 2.0 | 0.0 | 0.00 | 0.00 | 0.00 | 61 | 1019.3 |
| 20260504014716 | 67 | 173 | 2.0 | 0.0 | 0.00 | 0.00 | 0.00 | 60 | 1019.3 |
| 20260504014217 | 67 | 165 | 2.0 | 0.0 | 0.00 | 0.00 | 0.00 | 60 | 1019.3 |
| 20260504013719 | 68 | 198 | 2.0 | 0.0 | 0.00 | 0.00 | 0.00 | 58 | 1019.0 |
| 20260504013216 | 68 | 197 | 2.0 | 0.0 | 0.00 | 0.00 | 0.00 | 58 | 1019.0 |
| 20260504012718 | 68 | 187 | 2.0 | 0.0 | 0.00 | 0.00 | 0.00 | 56 | 1019.0 |
| 20260504012218 | 69 | 206 | 3.0 | 0.0 | 0.00 | 0.00 | 0.00 | 57 | 1019.0 |
| 20260504011717 | 69 | 191 | 2.0 | 0.0 | 0.00 | 0.00 | 0.00 | 57 | 1019.0 |
| 20260504011215 | 70 | 163 | 2.0 | 0.0 | 0.00 | 0.00 | 0.00 | 56 | 1019.0 |
| 20260504010716 | 70 | 194 | 2.0 | 0.0 | 0.00 | 0.00 | 0.00 | 54 | 1019.0 |
| 20260504010216 | 70 | 137 | 3.0 | 0.0 | 0.00 | 0.00 | 0.00 | 54 | 1018.6 |
| 20260504005718 | 71 | 196 | 2.0 | 0.0 | 0.00 | 0.00 | 0.00 | 53 | 1019.0 |
| 20260504005216 | 71 | 186 | 3.0 | 0.0 | 0.00 | 0.00 | 0.00 | 53 | 1019.0 |
| 20260504004717 | 72 | 191 | 2.0 | 0.0 | 0.00 | 0.00 | 0.00 | 51 | 1019.0 |
| 20260504004215 | 72 | 124 | 3.0 | 0.0 | 0.00 | 0.00 | 0.00 | 49 | 1019.0 |
| 20260504003716 | 72 | 140 | 3.0 | 0.0 | 0.00 | 0.00 | 0.00 | 48 | 1019.0 |
| 20260504003217 | 73 | 195 | 4.0 | 0.0 | 0.00 | 0.00 | 0.00 | 47 | 1019.0 |
| 20260504002716 | 73 | 194 | 4.0 | 0.0 | 0.00 | 0.00 | 0.00 | 46 | 1019.0 |
| 20260504002216 | 73 | 200 | 3.0 | 0.0 | 0.00 | 0.00 | 0.00 | 45 | 1019.0 |
| 20260504001716 | 74 | 135 | 3.0 | 0.0 | 0.00 | 0.00 | 0.00 | 45 | 1019.0 |
| 20260504001217 | 74 | 133 | 5.0 | 0.0 | 0.00 | 0.00 | 0.00 | 43 | 1019.0 |
| 20260504000715 | 74 | 128 | 4.0 | 0.0 | 0.00 | 0.00 | 0.00 | 43 | 1019.3 |
| 20260504000214 | 74 | 166 | 5.0 | 0.0 | 0.00 | 0.00 | 0.00 | 44 | 1019.3 |
| 20260503235715 | 75 | 157 | 4.0 | 0.0 | 0.00 | 0.00 | 0.00 | 43 | 1019.3 |
| 20260503235215 | 75 | 180 | 5.0 | 0.0 | 0.00 | 0.00 | 0.00 | 43 | 1019.3 |
| 20260503234715 | 75 | 119 | 3.0 | 0.0 | 0.00 | 0.00 | 0.00 | 45 | 1019.3 |
| 20260503234212 | 75 | 204 | 4.0 | 0.0 | 0.00 | 0.00 | 0.00 | 41 | 1019.3 |
| 20260503233714 | 75 | 144 | 4.0 | 0.0 | 0.00 | 0.00 | 0.00 | 41 | 1019.3 |
| 20260503233214 | 75 | 121 | 4.0 | 0.0 | 0.00 | 0.00 | 0.00 | 41 | 1019.6 |
| 20260503232714 | 76 | 216 | 4.0 | 0.0 | 0.00 | 0.00 | 0.00 | 41 | 1019.6 |
| 20260503232217 | 76 | 172 | 5.0 | 0.0 | 0.00 | 0.00 | 0.00 | 39 | 1019.6 |
| 20260503231714 | 76 | 174 | 6.0 | 0.0 | 0.00 | 0.00 | 0.00 | 40 | 1019.3 |
| 20260503231214 | 76 | 95 | 5.0 | 0.0 | 0.00 | 0.00 | 0.00 | 41 | 1019.3 |
| 20260503230715 | 76 | 244 | 5.0 | 0.0 | 0.00 | 0.00 | 0.00 | 40 | 1019.6 |
| 20260503230213 | 76 | 118 | 6.0 | 0.0 | 0.00 | 0.00 | 0.00 | 41 | 1019.6 |
| 20260503225714 | 76 | 237 | 7.0 | 0.0 | 0.00 | 0.00 | 0.00 | 39 | 1019.6 |
| 20260503225215 | 76 | 214 | 6.0 | 0.0 | 0.00 | 0.00 | 0.00 | 40 | 1019.6 |
| 20260503224712 | 76 | 189 | 4.0 | 0.0 | 0.00 | 0.00 | 0.00 | 43 | 1019.6 |
| 20260503224212 | 76 | 26 | 6.0 | 0.0 | 0.00 | 0.00 | 0.00 | 41 | 1019.6 |
| 20260503223713 | 77 | 18 | 8.0 | 0.0 | 0.00 | 0.00 | 0.00 | 40 | 1019.6 |
| 20260503223211 | 77 | 313 | 7.0 | 0.0 | 0.00 | 0.00 | 0.00 | 39 | 1019.6 |
| 20260503222714 | 77 | 96 | 6.0 | 0.0 | 0.00 | 0.00 | 0.00 | 38 | 1019.6 |
| 20260503222214 | 77 | 121 | 9.0 | 0.0 | 0.00 | 0.00 | 0.00 | 38 | 1020.0 |
| 20260503221714 | 77 | 146 | 6.0 | 0.0 | 0.00 | 0.00 | 0.00 | 36 | 1020.0 |
| 20260503221213 | 77 | 90 | 5.0 | 0.0 | 0.00 | 0.00 | 0.00 | 37 | 1020.0 |
| 20260503220714 | 77 | 99 | 4.0 | 0.0 | 0.00 | 0.00 | 0.00 | 37 | 1020.0 |
| 20260503220214 | 77 | 165 | 5.0 | 0.0 | 0.00 | 0.00 | 0.00 | 40 | 1020.3 |
| 20260503215713 | 76 | 133 | 3.0 | 0.0 | 0.00 | 0.00 | 0.00 | 39 | 1020.3 |
| 20260503215214 | 77 | 38 | 6.0 | 0.0 | 0.00 | 0.00 | 0.00 | 36 | 1020.3 |
| 20260503214712 | 77 | 108 | 6.0 | 0.0 | 0.00 | 0.00 | 0.00 | 35 | 1020.7 |
| 20260503214212 | 77 | 130 | 6.0 | 0.0 | 0.00 | 0.00 | 0.00 | 35 | 1020.7 |
| 20260503213714 | 77 | 28 | 7.0 | 0.0 | 0.00 | 0.00 | 0.00 | 36 | 1020.7 |
| 20260503213214 | 77 | 86 | 7.0 | 0.0 | 0.00 | 0.00 | 0.00 | 38 | 1020.7 |
| 20260503212714 | 77 | 83 | 6.0 | 0.0 | 0.00 | 0.00 | 0.00 | 39 | 1020.7 |
| 20260503212215 | 77 | 274 | 3.0 | 0.0 | 0.00 | 0.00 | 0.00 | 39 | 1021.0 |
| 20260503211715 | 77 | 229 | 6.0 | 0.0 | 0.00 | 0.00 | 0.00 | 38 | 1021.0 |
| 20260503211211 | 77 | 101 | 6.0 | 0.0 | 0.00 | 0.00 | 0.00 | 37 | 1021.0 |
| 20260503210712 | 77 | 75 | 8.0 | 0.0 | 0.00 | 0.00 | 0.00 | 37 | 1021.0 |
| 20260503210213 | 78 | 100 | 8.0 | 0.0 | 0.00 | 0.00 | 0.00 | 37 | 1021.3 |
| 20260503205710 | 77 | 10 | 6.0 | 0.0 | 0.00 | 0.00 | 0.00 | 38 | 1021.3 |
| 20260503205211 | 77 | 111 | 5.0 | 0.0 | 0.00 | 0.00 | 0.00 | 39 | 1021.3 |
| 20260503204712 | 77 | 263 | 5.0 | 0.0 | 0.00 | 0.00 | 0.00 | 37 | 1021.7 |
| 20260503204212 | 77 | 240 | 5.0 | 0.0 | 0.00 | 0.00 | 0.00 | 37 | 1021.7 |
| 20260503203713 | 77 | 145 | 6.0 | 0.0 | 0.00 | 0.00 | 0.00 | 39 | 1021.7 |
| 20260503203213 | 77 | 136 | 6.0 | 0.0 | 0.00 | 0.00 | 0.00 | 38 | 1022.0 |
| 20260503203013 | 78 | 145 | 7.0 | 0.0 | 0.00 | 0.00 | 0.00 | 38 | 1022.0 |
| 20260503202214 | 78 | 112 | 8.0 | 0.0 | 0.00 | 0.00 | 0.00 | 39 | 1022.0 |
| 20260503201714 | 78 | 98 | 7.0 | 0.0 | 0.00 | 0.00 | 0.00 | 37 | 1022.0 |
| 20260503201215 | 78 | 92 | 5.0 | 0.0 | 0.00 | 0.00 | 0.00 | 39 | 1022.0 |
| 20260503200713 | 78 | 150 | 7.0 | 0.0 | 0.00 | 0.00 | 0.00 | 38 | 1022.4 |
| 20260503200214 | 78 | 132 | 7.0 | 0.0 | 0.00 | 0.00 | 0.00 | 40 | 1022.4 |
| 20260503195715 | 78 | 99 | 9.0 | 0.0 | 0.00 | 0.00 | 0.00 | 40 | 1022.4 |
| 20260503195209 | 78 | 171 | 6.0 | 0.0 | 0.00 | 0.00 | 0.00 | 44 | 1022.4 |
| 20260503194713 | 78 | 142 | 5.0 | 0.0 | 0.00 | 0.00 | 0.00 | 38 | 1022.7 |
| 20260503194214 | 78 | 119 | 5.0 | 0.0 | 0.00 | 0.00 | 0.00 | 37 | 1022.7 |
| 20260503193716 | 78 | 72 | 5.0 | 0.0 | 0.00 | 0.00 | 0.00 | 40 | 1022.7 |
| 20260503193209 | 79 | 116 | 5.0 | 0.0 | 0.00 | 0.00 | 0.00 | 37 | 1022.7 |
| 20260503192714 | 78 | 215 | 5.0 | 0.0 | 0.00 | 0.00 | 0.00 | 39 | 1022.7 |
| 20260503192213 | 78 | 221 | 7.0 | 0.0 | 0.00 | 0.00 | 0.00 | 43 | 1022.7 |
| 20260503191713 | 78 | 125 | 7.0 | 0.0 | 0.00 | 0.00 | 0.00 | 43 | 1022.7 |
| 20260503191209 | 77 | 145 | 5.0 | 0.0 | 0.00 | 0.00 | 0.00 | 44 | 1022.7 |
| 20260503190713 | 78 | 102 | 5.0 | 0.0 | 0.00 | 0.00 | 0.00 | 42 | 1023.0 |
| 20260503190211 | 78 | 138 | 6.0 | 0.0 | 0.00 | 0.00 | 0.00 | 42 | 1023.0 |
| 20260503185711 | 77 | 70 | 8.0 | 0.0 | 0.00 | 0.00 | 0.00 | 44 | 1023.0 |
| 20260503185214 | 78 | 103 | 10.0 | 0.0 | 0.00 | 0.00 | 0.00 | 43 | 1023.0 |
| 20260503184711 | 78 | 195 | 5.0 | 0.0 | 0.00 | 0.00 | 0.00 | 44 | 1023.4 |
| 20260503184213 | 78 | 114 | 5.0 | 0.0 | 0.00 | 0.00 | 0.00 | 44 | 1023.4 |
| 20260503183711 | 77 | 138 | 9.0 | 0.0 | 0.00 | 0.00 | 0.00 | 41 | 1023.7 |
| 20260503183211 | 78 | 300 | 7.0 | 0.0 | 0.00 | 0.00 | 0.00 | 43 | 1023.7 |
| 20260503182709 | 78 | 164 | 7.0 | 0.0 | 0.00 | 0.00 | 0.00 | 42 | 1023.7 |
| 20260503182212 | 78 | 111 | 7.0 | 0.0 | 0.00 | 0.00 | 0.00 | 43 | 1023.7 |
| 20260503181710 | 78 | 243 | 5.0 | 0.0 | 0.00 | 0.00 | 0.00 | 42 | 1024.0 |
| 20260503181210 | 77 | 167 | 4.0 | 0.0 | 0.00 | 0.00 | 0.00 | 45 | 1024.0 |
| 20260503180711 | 77 | 120 | 8.0 | 0.0 | 0.00 | 0.00 | 0.00 | 41 | 1024.0 |
| 20260503180212 | 77 | 102 | 8.0 | 0.0 | 0.00 | 0.00 | 0.00 | 41 | 1024.0 |
| 20260503175713 | 77 | 73 | 10.0 | 0.0 | 0.00 | 0.00 | 0.00 | 43 | 1024.4 |
| 20260503175211 | 76 | 117 | 7.0 | 0.0 | 0.00 | 0.00 | 0.00 | 38 | 1024.4 |
| 20260503174710 | 76 | 161 | 7.0 | 0.0 | 0.00 | 0.00 | 0.00 | 40 | 1024.4 |
| 20260503174214 | 77 | 89 | 7.0 | 0.0 | 0.00 | 0.00 | 0.00 | 42 | 1024.7 |
| 20260503173715 | 77 | 58 | 5.0 | 0.0 | 0.00 | 0.00 | 0.00 | 43 | 1024.7 |
| 20260503173212 | 77 | 112 | 6.0 | 0.0 | 0.00 | 0.00 | 0.00 | 40 | 1024.7 |
| 20260503172713 | 77 | 110 | 4.0 | 0.0 | 0.00 | 0.00 | 0.00 | 45 | 1024.7 |
| 20260503172211 | 77 | 223 | 6.0 | 0.0 | 0.00 | 0.00 | 0.00 | 44 | 1025.1 |
| 20260503171713 | 77 | 175 | 5.0 | 0.0 | 0.00 | 0.00 | 0.00 | 46 | 1025.1 |
| 20260503171216 | 76 | 234 | 3.0 | 0.0 | 0.00 | 0.00 | 0.00 | 45 | 1025.1 |
| 20260503170710 | 76 | 222 | 5.0 | 0.0 | 0.00 | 0.00 | 0.00 | 47 | 1025.1 |
| 20260503170211 | 75 | 288 | 5.0 | 0.0 | 0.00 | 0.00 | 0.00 | 49 | 1025.1 |
| 20260503160212 | 71 | 243 | 6.0 | 0.0 | 0.00 | 0.00 | 0.00 | 52 | 1025.4 |
| 20260503150713 | 67 | 79 | 6.0 | 0.0 | 0.00 | 0.00 | 0.00 | 58 | 1025.4 |
| 20260503150213 | 67 | 94 | 7.0 | 0.0 | 0.00 | 0.00 | 0.00 | 64 | 1025.4 |
| 20260503140211 | 57 | 199 | 0.0 | 0.0 | 0.00 | 0.00 | 0.00 | 98 | 1025.1 |
| 20260503131236 | 50 | 195 | 0.0 | 0.0 | 0.00 | 0.00 | 0.00 | 97 | 1024.7 |
| 20260503130735 | 50 | 191 | 0.0 | 0.0 | 0.00 | 0.00 | 0.00 | 97 | 1024.7 |
| 20260503130236 | 49 | 200 | 0.0 | 0.0 | 0.00 | 0.00 | 0.00 | 97 | 1024.7 |
| 20260503110731 | 46 | 174 | 0.0 | 0.0 | 0.00 | 0.00 | 0.00 | 96 | 1023.7 |
| 20260503110232 | 46 | 190 | 0.0 | 0.0 | 0.00 | 0.00 | 0.00 | 96 | 1023.7 |
| 20260503071532 | 49 | 192 | 0.0 | 0.0 | 0.00 | 0.00 | 0.00 | 93 | 1024.0 |
| 20260503054851 | 50 | 177 | 0.0 | 0.0 | 0.00 | 0.00 | 0.00 | 92 | 1024.4 |
| 20260503054025 | 50 | 177 | 0.0 | 0.0 | 0.00 | 0.00 | 0.00 | 91 | 1024.0 |
| 20260503053227 | 50 | 177 | 0.0 | 0.0 | 0.00 | 0.00 | 0.00 | 91 | 1024.0 |
| 20260503052725 | 50 | 181 | 2.0 | 0.0 | 0.00 | 0.00 | 0.00 | 91 | 1024.0 |
| 20260503052224 | 50 | 172 | 2.0 | 0.0 | 0.00 | 0.00 | 0.00 | 91 | 1024.0 |
| 20260503051726 | 51 | 179 | 2.0 | 0.0 | 0.00 | 0.00 | 0.00 | 91 | 1024.4 |
| 20260503051224 | 51 | 174 | 0.0 | 0.0 | 0.00 | 0.00 | 0.00 | 91 | 1024.0 |
| 20260503050825 | 51 | 182 | 0.0 | 0.0 | 0.00 | 0.00 | 0.00 | 90 | 1024.0 |
| 20260503045725 | 51 | 184 | 1.0 | 0.0 | 0.00 | 0.00 | 0.00 | 90 | 1024.0 |
| 20260503045227 | 51 | 174 | 2.0 | 0.0 | 0.00 | 0.00 | 0.00 | 90 | 1024.0 |
| 20260503044726 | 51 | 167 | 2.0 | 0.0 | 0.00 | 0.00 | 0.00 | 90 | 1024.0 |
| 20260503044224 | 52 | 176 | 2.0 | 0.0 | 0.00 | 0.00 | 0.00 | 89 | 1024.0 |
| 20260503043725 | 52 | 153 | 2.0 | 0.0 | 0.00 | 0.00 | 0.00 | 89 | 1024.0 |
| 20260503043225 | 52 | 182 | 0.0 | 0.0 | 0.00 | 0.00 | 0.00 | 89 | 1024.0 |